Location: Alpha Ridge Park
(39.3209°N, 76.9128°W)
Time: 22:54:03
(UTC-04:00)

Transit 2A - Pass Details

Date: 27 May 2019
Orbit: 593 x 966 km, 66.7° (Epoch: 15 June)

Event Time Altitude Azimuth Distance (km) Brightness Sun altitude
Rises 18:06:40 0° 313° (NW) 3,456 10.2 24.3°
Reaches altitude 10° 18:10:22 10° 290° (WNW) 2,433 10.4 23.6°
Maximum altitude 18:13:17 15° 259° (W) 2,059 9.8 23.1°
Drops below altitude 10° 18:16:03 10° 227° (SW) 2,289 9.1 22.5°
Sets 18:19:22 0° 203° (SSW) 3,123 9.3 21.9°
